Location: Cluj-Napoca
(46.7712°N, 23.6236°E)
Time: 07:24:05
(UTC+02:00)

ISS - Pass Details

Date: 01 February 2021
Orbit: 417 x 422 km, 51.6° (Epoch: 08 March)

Event Time Altitude Azimuth Distance (km) Brightness Sun altitude
Rises 19:55:06 0° 294° (WNW) 2,377 1.2 -25.1°
Reaches altitude 10° 19:57:15 10° 288° (WNW) 1,509 0.0 -25.5°
Enters shadow 19:59:16 30° 268° (W) 784 -1.8 -25.9°
